• In Kazakhstan
  • List of Countries
  • For 7 days
  • Water Temperature
  • Weather Map
  • News
  • Weather Widgets
  • user-avatar
    Login

    Hourly Weather Eisenstadt

    Today, 25 August, Sunday

    Time Temperature Precipitation Wind Pressure Humidity
    00:00 +20°C° 0.1 mm 1 mps 726 mmHg 88%
    01:00 +18°C° 0 mm 0 mps 726 mmHg 87%
    02:00 +19°C° 0.3 mm 1 mps 726 mmHg 87%
    03:00 +19°C° 0.3 mm 1 mps 726 mmHg 88%
    04:00 +19°C° 0.3 mm 1 mps 725 mmHg 89%
    05:00 +20°C° 0.1 mm 1 mps 726 mmHg 87%
    06:00 +21°C° 0.1 mm 1 mps 726 mmHg 86%
    07:00 +21°C° 0 mm 1 mps 726 mmHg 82%
    08:00 +22°C° 0.4 mm 1 mps 726 mmHg 78%
    09:00 +24°C° 0.4 mm 1 mps 726 mmHg 74%
    10:00 +25°C° 0.4 mm 2 mps 726 mmHg 70%
    11:00 +26°C° 1 mm 1 mps 726 mmHg 67%
    12:00 +27°C° 1 mm 1 mps 726 mmHg 64%
    13:00 +28°C° 1 mm 1 mps 726 mmHg 61%
    14:00 +27°C° 0.6 mm 1 mps 725 mmHg 61%
    15:00 +27°C° 0.6 mm 1 mps 725 mmHg 62%
    16:00 +27°C° 0.6 mm 1 mps 725 mmHg 62%
    17:00 +25°C° 0.9 mm 2 mps 725 mmHg 68%
    18:00 +23°C° 0.9 mm 2 mps 724 mmHg 73%
    19:00 +20°C° 0.9 mm 2 mps 724 mmHg 79%
    20:00 +20°C° 0.8 mm 2 mps 725 mmHg 79%
    21:00 +19°C° 0.8 mm 2 mps 725 mmHg 80%
    22:00 +20°C° 0.8 mm 1 mps 725 mmHg 80%
    23:00 +20°C° 0.6 mm 1 mps 725 mmHg 81%

    Tomorrow, 26 August, Monday

    Time Temperature Precipitation Wind Pressure Humidity
    00:00 +20°C° 0.6 mm 1 mps 725 mmHg 83%
    01:00 +20°C° 0.6 mm 1 mps 725 mmHg 84%
    02:00 +20°C° 0 mm 1 mps 725 mmHg 84%
    03:00 +20°C° 0 mm 1 mps 725 mmHg 84%
    04:00 +19°C° 0 mm 1 mps 725 mmHg 84%
    05:00 +20°C° 0 mm 1 mps 725 mmHg 83%
    06:00 +21°C° 0 mm 1 mps 725 mmHg 81%
    07:00 +22°C° 0 mm 1 mps 725 mmHg 80%
    08:00 +23°C° 0.1 mm 1 mps 725 mmHg 75%
    09:00 +24°C° 0.1 mm 1 mps 726 mmHg 70%
    10:00 +26°C° 0.1 mm 1 mps 726 mmHg 65%
    11:00 +26°C° 0.3 mm 1 mps 726 mmHg 65%
    12:00 +26°C° 0.3 mm 1 mps 725 mmHg 64%
    13:00 +27°C° 0.3 mm 1 mps 725 mmHg 64%
    14:00 +27°C° 1.1 mm 1 mps 725 mmHg 67%
    15:00 +26°C° 1.1 mm 1 mps 725 mmHg 69%
    16:00 +24°C° 1.1 mm 0 mps 724 mmHg 72%
    17:00 +25°C° 2 mm 1 mps 724 mmHg 76%
    18:00 +23°C° 2 mm 1 mps 724 mmHg 80%
    19:00 +22°C° 2 mm 1 mps 724 mmHg 83%
    20:00 +22°C° 1.4 mm 1 mps 724 mmHg 84%
    21:00 +21°C° 1.4 mm 1 mps 724 mmHg 85%
    22:00 +19°C° 1.4 mm 0 mps 724 mmHg 86%
    23:00 +20°C° 0 mm 1 mps 724 mmHg 87%

    Day after tomorrow, 27 August, Tuesday

    Time Temperature Precipitation Wind Pressure Humidity
    00:00 +20°C° 0 mm 1 mps 724 mmHg 87%
    01:00 +20°C° 0 mm 1 mps 724 mmHg 88%
    02:00 +20°C° 0 mm 1 mps 724 mmHg 87%
    03:00 +19°C° 0 mm 1 mps 724 mmHg 86%
    04:00 +19°C° 0 mm 1 mps 724 mmHg 86%
    05:00 +20°C° 0 mm 1 mps 724 mmHg 84%
    06:00 +19°C° 0 mm 0 mps 724 mmHg 81%
    07:00 +20°C° 0 mm 0 mps 724 mmHg 79%
    08:00 +24°C° 0 mm 1 mps 725 mmHg 73%
    09:00 +25°C° 0 mm 1 mps 725 mmHg 67%
    10:00 +27°C° 0 mm 2 mps 725 mmHg 61%
    11:00 +28°C° 0 mm 2 mps 725 mmHg 58%
    12:00 +29°C° 0 mm 2 mps 725 mmHg 56%
    13:00 +29°C° 0 mm 2 mps 725 mmHg 53%
    14:00 +29°C° 0 mm 2 mps 725 mmHg 54%
    15:00 +29°C° 0 mm 2 mps 725 mmHg 56%
    16:00 +29°C° 0 mm 2 mps 724 mmHg 58%
    17:00 +27°C° 0 mm 2 mps 724 mmHg 65%
    18:00 +25°C° 0 mm 1 mps 724 mmHg 72%
    19:00 +23°C° 0 mm 1 mps 724 mmHg 79%
    20:00 +23°C° 0 mm 1 mps 724 mmHg 79%
    21:00 +23°C° 0 mm 1 mps 724 mmHg 79%
    22:00 +22°C° 0 mm 1 mps 724 mmHg 79%
    23:00 +22°C° 0 mm 1 mps 724 mmHg 79%

    28 August, Wednesday

    Time Temperature Precipitation Wind Pressure Humidity
    00:00 +22°C° 0 mm 1 mps 724 mmHg 79%
    01:00 +22°C° 0 mm 1 mps 724 mmHg 79%
    02:00 +21°C° 0 mm 1 mps 724 mmHg 79%
    03:00 +21°C° 0 mm 1 mps 724 mmHg 80%
    04:00 +21°C° 0 mm 1 mps 724 mmHg 81%
    05:00 +22°C° 0 mm 1 mps 724 mmHg 78%
    06:00 +23°C° 0 mm 1 mps 724 mmHg 76%
    07:00 +22°C° 0 mm 0 mps 724 mmHg 73%
    08:00 +25°C° 0 mm 1 mps 724 mmHg 67%
    09:00 +27°C° 0 mm 1 mps 725 mmHg 61%
    10:00 +29°C° 0 mm 2 mps 725 mmHg 55%
    11:00 +29°C° 0 mm 2 mps 724 mmHg 52%
    12:00 +30°C° 0 mm 2 mps 724 mmHg 50%
    13:00 +31°C° 0 mm 3 mps 724 mmHg 47%
    14:00 +31°C° 0 mm 3 mps 724 mmHg 48%
    15:00 +31°C° 0 mm 3 mps 723 mmHg 48%
    16:00 +31°C° 0 mm 3 mps 723 mmHg 49%
    17:00 +29°C° 0.1 mm 2 mps 723 mmHg 56%
    18:00 +27°C° 0.1 mm 2 mps 722 mmHg 64%
    19:00 +25°C° 0.1 mm 1 mps 722 mmHg 71%
    20:00 +24°C° 0.1 mm 1 mps 722 mmHg 71%
    21:00 +23°C° 0.1 mm 1 mps 723 mmHg 72%
    22:00 +23°C° 0.1 mm 1 mps 723 mmHg 73%
    23:00 +23°C° 0 mm 1 mps 723 mmHg 73%

    29 August, Thursday

    Time Temperature Precipitation Wind Pressure Humidity
    00:00 +22°C° 0 mm 1 mps 723 mmHg 74%
    01:00 +22°C° 0 mm 1 mps 722 mmHg 74%
    02:00 +22°C° 0 mm 1 mps 722 mmHg 75%
    03:00 +22°C° 0 mm 1 mps 722 mmHg 76%
    04:00 +22°C° 0 mm 1 mps 722 mmHg 76%
    05:00 +23°C° 0 mm 1 mps 723 mmHg 75%
    06:00 +21°C° 0 mm 0 mps 723 mmHg 73%
    07:00 +22°C° 0 mm 0 mps 723 mmHg 71%
    08:00 +26°C° 0.1 mm 1 mps 723 mmHg 66%
    09:00 +27°C° 0.1 mm 1 mps 724 mmHg 60%
    10:00 +29°C° 0.1 mm 1 mps 724 mmHg 54%
    11:00 +30°C° 0.2 mm 1 mps 724 mmHg 51%
    12:00 +30°C° 0.2 mm 2 mps 724 mmHg 48%
    13:00 +31°C° 0.2 mm 2 mps 723 mmHg 44%
    14:00 +31°C° 0.1 mm 2 mps 723 mmHg 45%
    15:00 +31°C° 0.1 mm 1 mps 723 mmHg 45%
    16:00 +31°C° 0.1 mm 1 mps 723 mmHg 45%
    17:00 +29°C° 0 mm 2 mps 723 mmHg 52%
    18:00 +27°C° 0 mm 2 mps 723 mmHg 59%
    19:00 +25°C° 0 mm 3 mps 723 mmHg 65%
    20:00 +24°C° 0.2 mm 3 mps 724 mmHg 69%
    21:00 +23°C° 0.2 mm 2 mps 724 mmHg 72%
    22:00 +21°C° 0.2 mm 2 mps 724 mmHg 75%
    23:00 +21°C° 0.2 mm 2 mps 724 mmHg 75%

    30 August, Friday

    Time Temperature Precipitation Wind Pressure Humidity
    00:00 +21°C° 0.2 mm 2 mps 724 mmHg 75%
    01:00 +21°C° 0.2 mm 2 mps 724 mmHg 76%
    02:00 +20°C° 0.1 mm 2 mps 724 mmHg 78%
    03:00 +20°C° 0.1 mm 2 mps 725 mmHg 80%
    04:00 +20°C° 0.1 mm 2 mps 725 mmHg 82%
    05:00 +20°C° 0.1 mm 2 mps 725 mmHg 80%
    06:00 +21°C° 0.1 mm 2 mps 725 mmHg 79%
    07:00 +23°C° 0.1 mm 2 mps 725 mmHg 77%
    08:00 +24°C° 0 mm 2 mps 726 mmHg 71%
    09:00 +25°C° 0 mm 2 mps 726 mmHg 65%
    10:00 +27°C° 0 mm 3 mps 726 mmHg 58%
    11:00 +28°C° 0.1 mm 3 mps 726 mmHg 56%
    12:00 +29°C° 0.1 mm 3 mps 726 mmHg 53%
    13:00 +29°C° 0.1 mm 3 mps 726 mmHg 50%
    14:00 +29°C° 0.3 mm 2 mps 726 mmHg 52%
    15:00 +29°C° 0.3 mm 2 mps 726 mmHg 54%
    16:00 +29°C° 0.3 mm 2 mps 725 mmHg 56%
    17:00 +27°C° 0.2 mm 2 mps 725 mmHg 63%
    18:00 +25°C° 0.2 mm 2 mps 725 mmHg 69%
    19:00 +23°C° 0.2 mm 2 mps 725 mmHg 75%
    20:00 +21°C° 0.6 mm 2 mps 725 mmHg 79%
    21:00 +21°C° 0.6 mm 2 mps 725 mmHg 82%
    22:00 +20°C° 0.6 mm 2 mps 726 mmHg 85%
    23:00 +20°C° 0.2 mm 2 mps 726 mmHg 85%
    Show more